Погода в Олекминске

Россия / Республика Саха (Якутия)     60°22′32″N   120°24′21″E
темп.,
°C
ветер,
м/с
пор.,
м/с
влажн.,
%
обл.,
%
осадки,
мм/ч
давл.,
гПа
погр.,
м
24 сентября, пт
пт2400:00+4с2597100 2.0 1020376
03:00+4зсз2597100 2.9 1019327
06:00+4з2498100 0.8 1020688
09:00+4зюз3692100 1.2 1020696
12:00+4з4795100 0.3 1021828
15:00+4з4891100 0.5 1023816
18:00+4зсз3688100 0.2 1025761
21:00+4сз248997 0.3 1027208
25 сентября, сб
сб2500:00+4ссз119194 0.0 102826
03:00+4ссв1188100 0.1 102913
06:00+3ссз008916 0.0 102912
09:00+3св1186100 0.0 1030137
12:00+6св2372100 0.0 1029704
15:00+8всв2263100 0.0 10291095
18:00+5св2277100 0.0 103047
21:00+3ссв228784 0.0 103138
26 сентября, вс
вс2600:00+1св2394100 0.0 103159
03:00+1ссв2694100 0.0 1030134
06:000св3890100 0.0 1029225
09:00+2всв41079100 0.0 1027424
12:00+5всв51162100 0.0 1024714
15:00+5всв61260100 0.0 1020840
18:00+4всв61271100 0.2 1018926
21:00+3св61486100 2.4 1016854
27 сентября, пн
пн2700:00+3св61490100 3.1 1014777
03:00+3св61491100 5.0 1011748
06:00+3св61489100 1.9 1009733
09:00+3св61582100 2.8 1008735
12:00+3св61585100 1.3 1006879
15:00+3св71694100 7.1 1005971
18:00+3св61497100 4.8 1005954
21:00+3св51297100 8.9 1007842
28 сентября, вт
вт2800:00+2св51298100 2.8 1007772
03:00+2ссв41198100 7.4 1007784
06:00+2ссв41198100 3.7 1007783
09:00+2ссв41198100 6.1 1008472
12:00+3ссв3889100 1.1 1009754
15:00+5ссв4780100 1.3 1010971
18:00+3ссз119336 0.0 101118
21:000ссз2495100 0.0 101387